Date String (YYYY-MM-DD hh:mm:ss) UTC,Instrument flags,Ambient pressure (hPa),Sample flow (lpm),Bypass flow (lpm),Sample temperature (°C),Ambient temperature (°C),ASC tube jacket temperature (°C),LED temperature (°C),Box temperature (°C),Sample RH (%),Span deviation,Mass concentration (μg/m³),Mass concentration (μg/m³),Mass concentration (μg/m³)
DateTimeUTC,F1_M11,P_M11,Q1_M11,Q2_M11,T1_M11,T2_M11,T3_M11,T4_M11,T5_M11,U1_M11,ZSPAN_M11,X0_M11,X2_M11,X1_M11
2022-08-01 07:00:00,,0829.5,5.00,0.00,29.7,28.2,00.0,38.4,31.6,23.9,0000.0,0006.79,0004.57,0004.33
2022-08-01 07:01:00,,0829.5,5.01,0.00,29.7,27.5,00.0,38.4,31.4,24.3,0000.0,0006.63,0004.56,0004.33
2022-08-01 07:02:00,,0829.5,4.98,0.00,29.6,27.4,00.0,38.4,31.3,24.4,0000.0,0006.55,0004.55,0004.33
2022-08-01 07:03:00,,0829.5,5.01,0.00,29.5,27.4,00.0,38.4,31.3,24.4,0000.0,0006.97,0004.56,0004.35
2022-08-01 07:04:00,,0829.5,4.99,0.00,29.5,27.5,00.0,38.3,31.3,24.5,0000.0,0007.69,0004.57,0004.36
2022-08-01 07:05:00,,0829.5,4.99,0.00,29.5,27.6,00.0,38.3,31.3,24.4,0000.0,0007.73,0004.60,0004.39
2022-08-01 07:06:00,,0829.5,5.01,0.00,29.5,27.8,00.0,38.3,31.3,24.4,0000.0,0007.75,0004.62,0004.40
2022-08-01 07:07:00,,0829.5,5.00,0.00,29.5,27.9,00.0,38.3,31.3,24.5,0000.0,0007.79,0004.64,0004.42
2022-08-01 07:08:00,,0829.5,4.99,0.00,29.5,28.0,00.0,38.3,31.4,24.2,0000.0,0007.72,0004.65,0004.45
2022-08-01 07:09:00,,0829.5,5.00,0.00,29.5,28.1,00.0,38.3,31.4,24.1,0000.0,0007.65,0004.67,0004.48
2022-08-01 07:10:00,,0829.5,5.01,0.00,29.5,28.2,00.0,38.3,31.4,24.1,0000.0,0007.62,0004.67,0004.50
2022-08-01 07:11:00,,0829.5,4.99,0.00,29.5,28.3,00.0,38.3,31.5,24.0,0000.0,0007.67,0004.69,0004.51
2022-08-01 07:12:00,,0829.5,5.00,0.00,29.6,28.4,00.0,38.3,31.5,24.1,0000.0,0007.72,0004.72,0004.54
2022-08-01 07:13:00,,0829.5,5.00,0.00,29.6,28.5,00.0,38.4,31.5,24.1,0000.0,0007.75,0004.75,0004.57
2022-08-01 07:14:00,,0829.5,5.00,0.00,29.6,28.5,00.0,38.4,31.6,24.1,0000.0,0007.52,0004.79,0004.58
2022-08-01 07:15:00,,0829.5,4.99,0.00,29.6,28.6,00.0,38.4,31.6,24.0,0000.0,0007.03,0004.82,0004.62
2022-08-01 07:16:00,,0829.5,5.01,0.00,29.7,28.6,00.0,38.4,31.6,23.9,0000.0,0007.14,0004.85,0004.63
2022-08-01 07:17:00,,0829.5,5.00,0.00,29.7,28.7,00.0,38.4,31.7,23.7,0000.0,0007.25,0004.88,0004.65
2022-08-01 07:18:00,,0829.4,4.99,0.00,29.7,28.7,00.0,38.5,31.7,23.4,0000.0,0007.43,0004.88,0004.67
2022-08-01 07:19:00,,0829.4,5.01,0.00,29.7,28.8,00.0,38.5,31.7,23.0,0000.0,0007.47,0004.91,0004.68
2022-08-01 07:20:00,,0829.3,5.00,0.00,29.8,28.5,00.0,38.5,31.6,23.2,0000.0,0007.52,0004.94,0004.69
2022-08-01 07:21:00,,0829.3,4.99,0.00,29.7,27.7,00.0,38.4,31.4,23.2,0000.0,0007.50,0004.96,0004.71
2022-08-01 07:22:00,,0829.4,5.01,0.00,29.7,27.4,00.0,38.4,31.4,23.3,0000.0,0007.44,0004.96,0004.72
2022-08-01 07:23:00,,0829.4,4.98,0.00,29.6,27.4,00.0,38.4,31.3,23.8,0000.0,0007.42,0004.96,0004.73
2022-08-01 07:24:00,,0829.2,5.02,0.00,29.5,27.4,00.0,38.4,31.3,24.4,0000.0,0007.52,0004.97,0004.74
2022-08-01 07:25:00,,0829.3,4.99,0.00,29.5,27.6,00.0,38.4,31.3,24.5,0000.0,0007.50,0004.97,0004.75
2022-08-01 07:26:00,,0829.2,5.00,0.00,29.5,27.7,00.0,38.4,31.3,24.6,0000.0,0007.58,0005.01,0004.74
2022-08-01 07:27:00,,0829.2,5.00,0.00,29.5,27.8,00.0,38.3,31.3,25.0,0000.0,0007.59,0005.01,0004.75
2022-08-01 07:28:00,,0829.2,5.00,0.00,29.5,28.0,00.0,38.3,31.3,24.7,0000.0,0007.59,0005.01,0004.75
2022-08-01 07:29:00,,0829.2,5.00,0.00,29.5,28.1,00.0,38.3,31.4,24.4,0000.0,0007.45,0005.03,0004.76
2022-08-01 07:30:00,,0829.3,5.00,0.00,29.5,28.2,00.0,38.3,31.4,24.0,0000.0,0007.47,0005.04,0004.77
2022-08-01 07:31:00,,0829.3,5.00,0.00,29.6,28.3,00.0,38.3,31.5,23.9,0000.0,0007.72,0005.06,0004.78
2022-08-01 07:32:00,,0829.2,4.98,0.00,29.6,28.3,00.0,38.4,31.5,23.3,0000.0,0008.04,0005.07,0004.80
2022-08-01 07:33:00,,0829.2,5.01,0.00,29.6,28.4,00.0,38.4,31.5,22.7,0000.0,0008.09,0005.09,0004.81
2022-08-01 07:34:00,,0829.2,5.00,0.00,29.6,28.5,00.0,38.4,31.5,22.7,0000.0,0008.17,0005.12,0004.82
2022-08-01 07:35:00,,0829.2,4.98,0.00,29.6,28.5,00.0,38.4,31.6,23.2,0000.0,0008.13,0005.13,0004.83
2022-08-01 07:36:00,,0829.2,5.01,0.00,29.7,28.6,00.0,38.4,31.6,23.9,0000.0,0008.06,0005.12,0004.83
2022-08-01 07:37:00,,0829.2,4.99,0.00,29.7,28.6,00.0,38.4,31.6,24.3,0000.0,0007.91,0005.08,0004.84
2022-08-01 07:38:00,,0829.3,5.01,0.00,29.7,28.7,00.0,38.4,31.7,24.4,0000.0,0007.89,0005.07,0004.84
2022-08-01 07:39:00,,0829.5,5.00,0.00,29.7,28.7,00.0,38.5,31.7,25.0,0000.0,0008.02,0005.07,0004.83
2022-08-01 07:40:00,,0829.3,4.99,0.00,29.8,28.8,00.0,38.5,31.7,25.0,0000.0,0007.95,0005.06,0004.82
2022-08-01 07:41:00,,0829.3,5.00,0.00,29.8,28.8,00.0,38.5,31.7,25.0,0000.0,0007.89,0005.03,0004.80
2022-08-01 07:42:00,,0829.3,5.00,0.00,29.8,28.4,00.0,38.5,31.6,25.3,0000.0,0007.75,0004.99,0004.78
2022-08-01 07:43:00,,0829.3,5.00,0.00,29.7,27.7,00.0,38.5,31.5,24.6,0000.0,0007.31,0004.95,0004.75
2022-08-01 07:44:00,,0829.3,4.99,0.00,29.7,27.4,00.0,38.4,31.4,25.4,0000.0,0007.28,0004.94,0004.73
2022-08-01 07:45:00,,0829.2,5.01,0.00,29.6,27.4,00.0,38.4,31.3,26.1,0000.0,0007.55,0004.92,0004.71
2022-08-01 07:46:00,,0829.4,5.00,0.00,29.6,27.5,00.0,38.4,31.3,25.5,0000.0,0007.59,0004.89,0004.68
2022-08-01 07:47:00,,0829.3,5.00,0.00,29.5,27.6,00.0,38.4,31.3,25.7,0000.0,0007.61,0004.88,0004.66
2022-08-01 07:48:00,,0829.3,5.00,0.00,29.5,27.8,00.0,38.4,31.3,25.5,0000.0,0007.62,0004.88,0004.65
2022-08-01 07:49:00,,0829.3,5.00,0.00,29.5,27.9,00.0,38.4,31.3,25.3,0000.0,0007.65,0004.89,0004.63
2022-08-01 07:50:00,,0829.3,5.02,0.00,29.5,28.0,00.0,38.4,31.4,24.1,0000.0,0007.50,0004.90,0004.64
2022-08-01 07:51:00,,0829.3,5.01,0.00,29.5,28.1,00.0,38.4,31.4,24.2,0000.0,0007.64,0004.92,0004.65
2022-08-01 07:52:00,,0829.4,5.00,0.00,29.5,28.2,00.0,38.4,31.4,24.4,0000.0,0007.82,0004.92,0004.65
2022-08-01 07:53:00,,0829.4,5.00,0.00,29.6,28.3,00.0,38.4,31.5,23.6,0000.0,0007.78,0004.92,0004.66
2022-08-01 07:54:00,,0829.4,5.00,0.00,29.6,28.4,00.0,38.4,31.5,23.0,0000.0,0007.81,0004.96,0004.68
2022-08-01 07:55:00,,0829.4,5.01,0.00,29.6,28.4,00.0,38.4,31.5,22.9,0000.0,0007.89,0004.99,0004.71
2022-08-01 07:56:00,,0829.4,4.98,0.00,29.6,28.5,00.0,38.4,31.5,22.6,0000.0,0007.81,0005.02,0004.73
2022-08-01 07:57:00,,0829.4,5.01,0.00,29.6,28.6,00.0,38.4,31.6,22.3,0000.0,0007.66,0005.05,0004.76
2022-08-01 07:58:00,,0829.4,5.00,0.00,29.7,28.6,00.0,38.4,31.6,22.3,0000.0,0007.66,0005.07,0004.79
2022-08-01 07:59:00,,0829.4,4.99,0.00,29.7,28.6,00.0,38.4,31.7,22.4,0000.0,0007.76,0005.12,0004.81
